FW7131 Weather Reports


Display with metric or nautical units.
time (UTC)temp
F
wind
direction
speed
MPH
gust
MPH
rain 1hr
in
rain 24hr
in
rain mn
in
humidity
%
barometer
mb
20210513082106 74 45 2.0 2.0 0.00 0.00 0.00 19 1015.5
20210513081605 74 46 1.0 3.0 0.00 0.00 0.00 20 1015.5
20210513081105 74 47 2.0 3.0 0.00 0.00 0.00 21 1015.5
20210513080605 74 90 2.0 2.0 0.00 0.00 0.00 21 1015.5
20210513080103 74 138 1.0 2.0 0.00 0.00 0.00 21 1015.5
20210513075603 74 162 1.0 2.0 0.00 0.00 0.00 21 1015.7
20210513075103 74 163 2.0 2.0 0.00 0.00 0.00 20 1015.7
20210513074603 75 163 1.0 2.0 0.00 0.00 0.00 21 1015.6
20210513074104 75 163 0.0 1.0 0.00 0.00 0.00 20 1015.6
20210513073603 75 163 0.0 1.0 0.00 0.00 0.00 20 1015.6
20210513073103 76 163 0.0 1.0 0.00 0.00 0.00 21 1015.7
20210513072602 76 163 1.0 2.0 0.00 0.00 0.00 19 1015.4
20210513072102 77 163 1.0 2.0 0.00 0.00 0.00 20 1015.3
20210513071602 77 163 0.0 2.0 0.00 0.00 0.00 19 1015.4
20210513071102 77 162 1.0 3.0 0.00 0.00 0.00 18 1015.2
20210513070602 77 223 1.0 4.0 0.00 0.00 0.00 18 1015.2
20210513070131 77 116 1.0 4.0 0.00 0.00 0.00 18 1015.2
20210513065601 77 190 0.0 1.0 0.00 0.00 0.00 15 1014.9
20210513065131 77 190 0.0 2.0 0.00 0.00 0.00 16 1014.8
20210513064631 77 190 0.0 2.0 0.00 0.00 0.00 16 1014.8
20210513064131 77 190 1.0 2.0 0.00 0.00 0.00 15 1014.7
20210513063601 77 190 1.0 2.0 0.00 0.00 0.00 16 1014.8
20210513063130 77 190 0.0 2.0 0.00 0.00 0.00 16 1014.7
20210513062601 77 191 1.0 2.0 0.00 0.00 0.00 16 1014.7
20210513062100 77 191 0.0 2.0 0.00 0.00 0.00 16 1014.7
20210513061630 78 192 0.0 2.0 0.00 0.00 0.00 16 1014.8
20210513061131 78 192 1.0 2.0 0.00 0.00 0.00 16 1014.8
20210513060600 78 216 1.0 2.0 0.00 0.00 0.00 16 1014.7
20210513060101 78 216 1.0 2.0 0.00 0.00 0.00 16 1014.7
20210513055630 78 216 1.0 2.0 0.00 0.00 0.00 16 1014.7
20210513055101 78 216 1.0 2.0 0.00 0.00 0.00 17 1014.7
20210513054631 78 216 0.0 2.0 0.00 0.00 0.00 16 1014.7
20210513054129 78 216 0.0 2.0 0.00 0.00 0.00 16 1014.7
20210513053559 78 216 0.0 2.0 0.00 0.00 0.00 17 1014.7
20210513053132 78 216 1.0 2.0 0.00 0.00 0.00 16 1014.7
20210513052629 79 226 1.0 2.0 0.00 0.00 0.00 16 1014.7
20210513052129 79 226 0.0 1.0 0.00 0.00 0.00 16 1014.6
20210513051630 79 226 0.0 1.0 0.00 0.00 0.00 15 1014.6
20210513051128 80 226 1.0 1.0 0.00 0.00 0.00 16 1014.7
20210513050629 80 226 0.0 1.0 0.00 0.00 0.00 15 1014.6
20210513050131 80 226 1.0 1.0 0.00 0.00 0.00 17 1014.6
20210513045628 80 226 1.0 2.0 0.00 0.00 0.00 16 1014.5
20210513045128 80 226 1.0 2.0 0.00 0.00 0.00 15 1014.5
20210513044629 81 226 1.0 2.0 0.00 0.00 0.00 15 1014.5
20210513044127 81 226 1.0 1.0 0.00 0.00 0.00 15 1014.5
20210513043627 81 226 0.0 1.0 0.00 0.00 0.00 14 1014.4
20210513043129 82 226 0.0 1.0 0.00 0.00 0.00 13 1014.4
20210513042628 82 226 0.0 1.0 0.00 0.00 0.00 13 1014.3
20210513042126 82 226 1.0 1.0 0.00 0.00 0.00 14 1014.4
20210513041629 83 226 0.0 1.0 0.00 0.00 0.00 14 1014.3
20210513041126 83 226 0.0 1.0 0.00 0.00 0.00 14 1014.3
20210513040626 84 226 0.0 0.0 0.00 0.00 0.00 13 1014.3
20210513040129 84 226 0.0 0.0 0.00 0.00 0.00 13 1014.3
20210513035626 84 226 0.0 1.0 0.00 0.00 0.00 12 1014.0
20210513035127 85 226 0.0 2.0 0.00 0.00 0.00 12 1014.0
20210513034628 85 226 0.0 2.0 0.00 0.00 0.00 12 1013.8
20210513034127 85 226 1.0 1.0 0.00 0.00 0.00 11 1013.8
20210513033625 86 226 0.0 1.0 0.00 0.00 0.00 12 1013.9
20210513033127 86 226 0.0 1.0 0.00 0.00 0.00 11 1013.8
20210513032626 87 226 0.0 1.0 0.00 0.00 0.00 11 1013.9
20210513032125 87 226 1.0 1.0 0.00 0.00 0.00 11 1013.9
20210513031628 87 226 0.0 1.0 0.00 0.00 0.00 10 1013.9
20210513031126 88 226 0.0 2.0 0.00 0.00 0.00 10 1013.9
20210513030625 88 226 1.0 2.0 0.00 0.00 0.00 10 1013.9
20210513030127 89 226 0.0 0.0 0.00 0.00 0.00 9 1014.0
20210513025624 89 226 0.0 0.0 0.00 0.00 0.00 9 1013.6
20210513025125 90 226 0.0 0.0 0.00 0.00 0.00 8 1013.8
20210513024626 90 226 0.0 0.0 0.00 0.00 0.00 8 1013.6
20210513024125 91 226 0.0 0.0 0.00 0.00 0.00 8 1013.7
20210513023624 92 226 0.0 0.0 0.00 0.00 0.00 7 1013.8
20210513023127 92 226 0.0 1.0 0.00 0.00 0.00 9 1013.7
20210513022625 93 226 0.0 1.0 0.00 0.00 0.00 9 1013.8
20210513022124 93 226 0.0 1.0 0.00 0.00 0.00 8 1013.7
20210513021625 94 226 0.0 1.0 0.00 0.00 0.00 6 1013.8
20210513021124 94 226 0.0 1.0 0.00 0.00 0.00 6 1013.7
20210513020623 95 226 1.0 3.0 0.00 0.00 0.00 5 1013.5
20210513020124 95 226 1.0 3.0 0.00 0.00 0.00 5 1013.5
20210513015623 96 161 0.0 2.0 0.00 0.00 0.00 5 1013.4
20210513015124 96 154 1.0 2.0 0.00 0.00 0.00 5 1013.3
20210513014626 96 156 2.0 2.0 0.00 0.00 0.00 5 1013.3
20210513014122 96 146 0.0 3.0 0.00 0.00 0.00 5 1013.3
20210513013622 96 138 0.0 4.0 0.00 0.00 0.00 5 1013.2
20210513013126 97 225 1.0 4.0 0.00 0.00 0.00 5 1013.4
20210513012622 97 232 2.0 4.0 0.00 0.00 0.00 5 1013.3
20210513012121 97 227 2.0 3.0 0.00 0.00 0.00 5 1013.3
20210513011623 97 219 3.0 5.0 0.00 0.00 0.00 6 1013.4
20210513011121 97 205 1.0 12.0 0.00 0.00 0.00 6 1013.3
20210513010622 97 293 2.0 12.0 0.00 0.00 0.00 7 1013.3
20210513010123 97 108 1.0 5.0 0.00 0.00 0.00 6 1013.3
20210513005621 97 240 2.0 4.0 0.00 0.00 0.00 5 1013.1
20210513005122 98 146 1.0 4.0 0.00 0.00 0.00 5 1013.1
20210513004622 97 134 1.0 5.0 0.00 0.00 0.00 6 1013.0
20210513004120 97 273 0.0 6.0 0.00 0.00 0.00 5 1013.0
20210513003620 98 217 2.0 6.0 0.00 0.00 0.00 6 1013.0
20210513003122 97 135 1.0 7.0 0.00 0.00 0.00 5 1013.0
20210513002620 98 119 2.0 7.0 0.00 0.00 0.00 5 1013.0
20210513002121 98 224 3.0 7.0 0.00 0.00 0.00 5 1013.1
20210513001622 98 202 2.0 8.0 0.00 0.00 0.00 5 1013.0
20210513001121 99 227 6.0 8.0 0.00 0.00 0.00 5 1013.2
20210513000619 99 228 2.0 5.0 0.00 0.00 0.00 6 1013.2
20210513000121 99 127 1.0 4.0 0.00 0.00 0.00 6 1013.2
20210512235620 98 227 1.0 4.0 0.00 0.00 0.00 6 1013.1
20210512235120 98 13 2.0 6.0 0.00 0.00 0.00 5 1013.2
20210512234622 98 250 4.0 7.0 0.00 0.00 0.00 6 1013.3
20210512234119 98 269 3.0 9.0 0.00 0.00 0.00 5 1013.2
20210512233618 99 231 4.0 9.0 0.00 0.00 0.00 5 1013.3
20210512233120 99 231 8.0 8.0 0.00 0.00 0.00 6 1013.3
20210512232618 99 266 3.0 7.0 0.00 0.00 0.00 7 1013.2
20210512232118 99 304 3.0 7.0 0.00 0.00 0.00 7 1013.3
20210512231620 99 289 4.0 8.0 0.00 0.00 0.00 6 1013.4
20210512231118 99 304 4.0 8.0 0.00 0.00 0.00 6 1013.4
20210512230617 99 289 3.0 7.0 0.00 0.00 0.00 6 1013.4
20210512230119 99 282 2.0 6.0 0.00 0.00 0.00 8 1013.4
20210512225617 99 277 4.0 9.0 0.00 0.00 0.00 7 1013.5
20210512225117 99 284 3.0 9.0 0.00 0.00 0.00 7 1013.5
20210512224620 99 284 4.0 9.0 0.00 0.00 0.00 7 1013.5
20210512224117 99 232 2.0 7.0 0.00 0.00 0.00 7 1013.6
20210512223616 99 263 1.0 5.0 0.00 0.00 0.00 9 1013.6
20210512223119 99 103 3.0 5.0 0.00 0.00 0.00 6 1013.7
20210512222617 99 108 0.0 4.0 0.00 0.00 0.00 5 1013.6
20210512222116 98 73 1.0 4.0 0.00 0.00 0.00 5 1013.7
20210512221618 97 36 2.0 9.0 0.00 0.00 0.00 6 1013.8
20210512221116 98 231 1.0 14.0 0.00 0.00 0.00 6 1013.9
20210512220615 99 205 9.0 14.0 0.00 0.00 0.00 6 1014.1
20210512220119 99 237 3.0 7.0 0.00 0.00 0.00 7 1014.1
20210512215616 98 139 4.0 4.0 0.00 0.00 0.00 7 1014.1
20210512215115 98 38 1.0 7.0 0.00 0.00 0.00 6 1014.2
20210512214617 98 206 1.0 10.0 0.00 0.00 0.00 6 1014.3
20210512214115 99 235 4.0 10.0 0.00 0.00 0.00 7 1014.5
20210512213615 99 227 3.0 5.0 0.00 0.00 0.00 7 1014.5
20210512213116 99 186 2.0 6.0 0.00 0.00 0.00 7 1014.6
20210512212616 98 316 1.0 7.0 0.00 0.00 0.00 8 1014.6
20210512212114 98 184 3.0 10.0 0.00 0.00 0.00 7 1014.6
20210512211616 98 207 2.0 10.0 0.00 0.00 0.00 7 1014.8
20210512211114 98 263 1.0 4.0 0.00 0.00 0.00 10 1014.8
20210512210614 98 316 1.0 5.0 0.00 0.00 0.00 7 1014.8
20210512210117 97 103 2.0 7.0 0.00 0.00 0.00 8 1014.9
20210512205615 97 211 1.0 10.0 0.00 0.00 0.00 7 1015.1
20210512205115 97 144 3.0 10.0 0.00 0.00 0.00 8 1015.1
20210512204615 97 221 5.0 7.0 0.00 0.00 0.00 7 1015.2
20210512204114 97 280 2.0 7.0 0.00 0.00 0.00 10 1015.1
20210512203613 97 278 2.0 7.0 0.00 0.00 0.00 8 1015.2
20210512203115 97 306 7.0 7.0 0.00 0.00 0.00 9 1015.4
20210512202614 97 300 3.0 8.0 0.00 0.00 0.00 9 1015.5
20210512202113 97 273 2.0 8.0 0.00 0.00 0.00 8 1015.5
20210512201616 97 279 2.0 7.0 0.00 0.00 0.00 8 1015.5
20210512201114 96 205 1.0 8.0 0.00 0.00 0.00 8 1015.6
20210512200612 96 233 1.0 8.0 0.00 0.00 0.00 7 1015.7
20210512200115 96 140 1.0 5.0 0.00 0.00 0.00 7 1015.6
20210512195613 96 119 3.0 8.0 0.00 0.00 0.00 8 1015.8
20210512195112 95 294 5.0 8.0 0.00 0.00 0.00 9 1015.7
20210512194614 95 287 7.0 7.0 0.00 0.00 0.00 11 1015.9
20210512194112 95 258 3.0 8.0 0.00 0.00 0.00 8 1015.9
20210512193611 95 192 4.0 8.0 0.00 0.00 0.00 8 1016.0
20210512193115 95 289 2.0 7.0 0.00 0.00 0.00 10 1016.0
20210512192611 94 309 0.0 5.0 0.00 0.00 0.00 8 1015.9
20210512192112 94 304 4.0 6.0 0.00 0.00 0.00 9 1016.0
20210512191613 94 245 3.0 6.0 0.00 0.00 0.00 10 1015.9
20210512191110 94 276 2.0 7.0 0.00 0.00 0.00 10 1016.0
20210512190611 93 34 2.0 7.0 0.00 0.00 0.00 8 1016.0
20210512190112 93 103 1.0 4.0 0.00 0.00 0.00 7 1016.1
20210512185610 93 184 2.0 6.0 0.00 0.00 0.00 8 1016.3
20210512185111 93 186 1.0 6.0 0.00 0.00 0.00 8 1016.4
20210512184612 93 309 2.0 5.0 0.00 0.00 0.00 10 1016.5
20210512184111 93 211 2.0 5.0 0.00 0.00 0.00 8 1016.5
20210512183609 93 236 2.0 5.0 0.00 0.00 0.00 8 1016.5
20210512183111 92 237 2.0 5.0 0.00 0.00 0.00 10 1016.6
20210512182609 92 238 0.0 5.0 0.00 0.00 0.00 8 1016.6
20210512182109 92 253 3.0 5.0 0.00 0.00 0.00 9 1016.7
20210512181612 91 260 1.0 6.0 0.00 0.00 0.00 10 1016.6
20210512181109 91 125 2.0 6.0 0.00 0.00 0.00 10 1016.6
20210512180608 91 172 5.0 6.0 0.00 0.00 0.00 9 1016.7
20210512180111 91 212 1.0 6.0 0.00 0.00 0.00 11 1016.7
20210512175609 90 216 1.0 6.0 0.00 0.00 0.00 11 1016.9
20210512175108 90 182 2.0 7.0 0.00 0.00 0.00 10 1016.8
20210512174614 90 248 2.0 7.0 0.00 0.00 0.00 11 1016.8
20210512174108 89 146 3.0 7.0 0.00 0.00 0.00 10 1016.9
20210512173608 89 159 2.0 7.0 0.00 0.00 0.00 11 1016.9
20210512173110 88 101 1.0 6.0 0.00 0.00 0.00 10 1016.7
20210512172608 88 110 4.0 6.0 0.00 0.00 0.00 11 1016.8
20210512172108 88 142 1.0 6.0 0.00 0.00 0.00 10 1016.6
20210512171610 88 236 2.0 6.0 0.00 0.00 0.00 10 1016.7
20210512171107 88 169 2.0 6.0 0.00 0.00 0.00 10 1016.8
20210512170607 88 140 3.0 6.0 0.00 0.00 0.00 11 1016.8
20210512170109 88 160 2.0 4.0 0.00 0.00 0.00 11 1016.7
20210512165607 88 136 2.0 5.0 0.00 0.00 0.00 11 1016.8
20210512165107 88 123 2.0 5.0 0.00 0.00 0.00 11 1016.7
20210512164608 87 155 3.0 4.0 0.00 0.00 0.00 11 1016.8
20210512164106 87 94 1.0 6.0 0.00 0.00 0.00 11 1016.8
20210512163607 86 193 0.0 7.0 0.00 0.00 0.00 11 1016.7
20210512163108 86 92 6.0 7.0 0.00 0.00 0.00 11 1016.6
20210512162605 86 92 2.0 6.0 0.00 0.00 0.00 11 1016.8
20210512162106 85 140 3.0 6.0 0.00 0.00 0.00 12 1016.7
20210512161607 85 119 1.0 6.0 0.00 0.00 0.00 11 1016.7
20210512161105 85 115 3.0 5.0 0.00 0.00 0.00 12 1016.7
20210512160606 85 88 1.0 5.0 0.00 0.00 0.00 12 1016.6
20210512160107 84 82 1.0 4.0 0.00 0.00 0.00 12 1016.5
20210512155606 84 146 3.0 4.0 0.00 0.00 0.00 12 1016.7
20210512155105 83 75 2.0 4.0 0.00 0.00 0.00 12 1016.6
20210512154606 83 52 2.0 4.0 0.00 0.00 0.00 11 1016.6
20210512154104 83 40 4.0 4.0 0.00 0.00 0.00 12 1016.6
20210512153606 82 109 2.0 4.0 0.00 0.00 0.00 12 1016.5
20210512153104 82 198 1.0 4.0 0.00 0.00 0.00 12 1016.5
20210512152605 81 195 1.0 4.0 0.00 0.00 0.00 12 1016.5
20210512152103 81 90 2.0 6.0 0.00 0.00 0.00 12 1016.5
20210512151607 81 159 2.0 6.0 0.00 0.00 0.00 12 1016.6
20210512151103 81 97 0.0 4.0 0.00 0.00 0.00 12 1016.6
20210512150603 81 186 2.0 3.0 0.00 0.00 0.00 13 1016.5
20210512150103 80 144 2.0 3.0 0.00 0.00 0.00 13 1016.5
20210512145603 80 121 1.0 4.0 0.00 0.00 0.00 13 1016.6
20210512145103 79 78 1.0 4.0 0.00 0.00 0.00 14 1016.6
20210512144604 79 119 1.0 4.0 0.00 0.00 0.00 14 1016.6
20210512144103 78 123 0.0 4.0 0.00 0.00 0.00 14 1016.5
20210512143603 78 127 4.0 6.0 0.00 0.00 0.00 13 1016.3
20210512143102 78 59 0.0 6.0 0.00 0.00 0.00 14 1016.2
20210512142602 77 112 2.0 3.0 0.00 0.00 0.00 14 1016.1
20210512142103 77 96 1.0 2.0 0.00 0.00 0.00 14 1016.1
20210512141602 76 109 1.0 2.0 0.00 0.00 0.00 15 1016.1
20210512141115 76 117 1.0 3.0 0.00 0.00 0.00 15 1016.0
20210512140601 75 120 2.0 4.0 0.00 0.00 0.00 15 1015.9
20210512140102 75 114 2.0 4.0 0.00 0.00 0.00 15 1015.7
20210512135601 75 115 1.0 3.0 0.00 0.00 0.00 15 1016.1
20210512135101 74 120 0.0 3.0 0.00 0.00 0.00 15 1016.0
20210512134601 74 123 3.0 3.0 0.00 0.00 0.00 15 1015.9
20210512134101 73 128 1.0 2.0 0.00 0.00 0.00 16 1015.9
20210512133600 73 107 2.0 3.0 0.00 0.00 0.00 15 1015.7
20210512133100 72 106 2.0 3.0 0.00 0.00 0.00 15 1015.5
20210512132601 72 148 1.0 3.0 0.00 0.00 0.00 16 1015.5
20210512132101 71 129 0.0 3.0 0.00 0.00 0.00 16 1015.4
20210512131600 71 123 2.0 3.0 0.00 0.00 0.00 16 1015.3
20210512131132 70 115 0.0 3.0 0.00 0.00 0.00 16 1015.2
20210512130630 70 96 0.0 2.0 0.00 0.00 0.00 16 1015.0
20210512130130 70 91 0.0 2.0 0.00 0.00 0.00 15 1015.0
20210512125630 69 90 0.0 4.0 0.00 0.00 0.00 16 1014.9
20210512125129 69 90 1.0 4.0 0.00 0.00 0.00 16 1014.9
20210512124600 69 80 2.0 2.0 0.00 0.00 0.00 16 1014.9
20210512124131 70 121 1.0 2.0 0.00 0.00 0.00 17 1014.8
20210512123559 70 133 1.0 2.0 0.00 0.00 0.00 16 1014.8
20210512123058 70 134 1.0 3.0 0.00 0.00 0.00 16 1014.8
20210512122629 70 138 1.0 4.0 0.00 0.00 0.00 15 1014.6
20210512122128 69 131 1.0 4.0 0.00 0.00 0.00 16 1014.6
20210512121558 69 78 1.0 2.0 0.00 0.00 0.00 16 1014.5
20210512121128 69 75 1.0 2.0 0.00 0.00 0.00 16 1014.4
20210512120629 69 76 1.0 2.0 0.00 0.00 0.00 15 1014.4
20210512120128 68 99 1.0 2.0 0.00 0.00 0.00 15 1014.1
20210512115629 68 142 1.0 2.0 0.00 0.00 0.00 17 1014.3
20210512115127 67 142 0.0 2.0 0.00 0.00 0.00 18 1014.1
20210512114627 67 202 0.0 2.0 0.00 0.00 0.00 18 1014.0
20210512114057 67 229 0.0 1.0 0.00 0.00 0.00 18 1014.0
20210512113628 67 229 0.0 1.0 0.00 0.00 0.00 18 1013.9
20210512113128 67 229 0.0 1.0 0.00 0.00 0.00 18 1013.8
20210512112628 67 229 0.0 1.0 0.00 0.00 0.00 17 1013.7
20210512112127 67 229 0.0 1.0 0.00 0.00 0.00 17 1013.6
20210512111627 67 229 0.0 1.0 0.00 0.00 0.00 18 1013.6
20210512111126 67 229 1.0 1.0 0.00 0.00 0.00 18 1013.5
20210512110626 67 229 1.0 1.0 0.00 0.00 0.00 19 1013.5
20210512110127 67 229 1.0 1.0 0.00 0.00 0.00 18 1013.4
20210512105627 67 229 0.0 2.0 0.00 0.00 0.00 19 1013.5
20210512105127 67 229 0.0 2.0 0.00 0.00 0.00 20 1013.5
20210512104626 67 229 0.0 1.0 0.00 0.00 0.00 21 1013.5
20210512104125 67 229 0.0 1.0 0.00 0.00 0.00 22 1013.4
20210512103625 67 229 0.0 2.0 0.00 0.00 0.00 22 1013.4
20210512103125 67 229 1.0 2.0 0.00 0.00 0.00 21 1013.2
20210512102625 67 229 1.0 2.0 0.00 0.00 0.00 22 1013.1
20210512102124 66 229 0.0 1.0 0.00 0.00 0.00 22 1013.0
20210512101625 67 229 1.0 1.0 0.00 0.00 0.00 23 1013.1
20210512101127 67 229 1.0 1.0 0.00 0.00 0.00 23 1013.1
20210512100626 67 229 0.0 2.0 0.00 0.00 0.00 24 1013.1
20210512100125 67 229 0.0 2.0 0.00 0.00 0.00 25 1013.2
20210512095627 67 229 1.0 2.0 0.00 0.00 0.00 26 1013.3
20210512095124 68 231 0.0 2.0 0.00 0.00 0.00 26 1013.2
20210512094624 68 232 1.0 2.0 0.00 0.00 0.00 25 1013.2
20210512094126 68 232 1.0 1.0 0.00 0.00 0.00 25 1013.1
20210512093623 68 232 0.0 1.0 0.00 0.00 0.00 24 1013.2
20210512093123 69 232 0.0 1.0 0.00 0.00 0.00 23 1013.2
20210512092626 69 232 0.0 2.0 0.00 0.00 0.00 23 1013.1
20210512092123 69 232 0.0 2.0 0.00 0.00 0.00 22 1013.0
20210512091623 69 232 0.0 1.0 0.00 0.00 0.00 22 1013.0
20210512091125 69 232 0.0 1.0 0.00 0.00 0.00 22 1013.1
20210512090622 70 232 1.0 1.0 0.00 0.00 0.00 21 1013.0
20210512090123 70 232 0.0 4.0 0.00 0.00 0.00 21 1013.0
20210512085622 70 232 1.0 4.0 0.00 0.00 0.00 21 1012.8
20210512085123 70 323 1.0 1.0 0.00 0.00 0.00 19 1012.8
20210512084622 70 323 0.0 1.0 0.00 0.00 0.00 18 1012.8
20210512084124 70 323 0.0 1.0 0.00 0.00 0.00 18 1012.8
20210512083623 70 323 1.0 1.0 0.00 0.00 0.00 18 1012.8
20210512083122 70 323 0.0 1.0 0.00 0.00 0.00 18 1012.8
20210512082621 70 323 0.0 2.0 0.00 0.00 0.00 19 1012.8